Terminal Aerodrome Forecast
Issued by NWS New Orleans/Baton Rouge, LA

Home | Current Version | Previous Version | Text Only | Print | Product List | Glossary On
Versions: 1 2 3 4 5 6 7 8 9 10 11 12
000
FTUS44 KLIX 232101 AAA
TAFBTR
TAF AMD
KBTR 232101Z 2321/2418 VRB04KT P6SM VCTS SCT040CB
      TEMPO 2321/2323 VRB20G30KT 2SM TSRA BKN025CB
     FM240000 VRB03KT P6SM FEW090 SCT200
     FM241500 VRB03KT P6SM VCSH SCT025 BKN090=

USA.gov is the U.S. government's official web portal to all federal, state and local government web resources and services.